Regional Weather Roundup
Issued by NWS

Home | Current Version | Previous Version | Graphics & Text | Print | Product List | Glossary On
Versions: 1 2 3 4 5 6 7 8 9 10 11 12 13 14 15 16 17 18 19 20 21 22 23 24 25 26 27 28 29 30 31 32 33 34 35 36 37 38 39 40 41 42 43 44 45 46 47 48 49 50
000
ASUS43 KLOT 221000
RWRIL

ILLINOIS REGIONAL WEATHER ROUNDUP
NATIONAL WEATHER SERVICE CHICAGO/ROMEOVILLE IL
500 AM CDT MON SEP 22 2014

NOTE: "FAIR" INDICATES FEW OR NO CLOUDS BELOW 12,000 FEET WITH NO
SIGNIFICANT WEATHER AND/OR OBSTRUCTIONS TO VISIBILITY.

* THESE STATIONS ARE NOT UNDER NWS QUALITY CONTROL. THEY ALSO MAY NOT
  REPORT WEATHER SUCH AS PRECIPITATION OR FOG.

ILZ001-002-007-009-015-016-024-221100-
NORTHWEST ILLINOIS

CITY           SKY/WX    TMP DP  RH WIND       PRES   REMARKS
MOLINE         CLEAR     44  42  93 CALM      30.25R
STERLING*      CLEAR     45  39  81 CALM      30.24R
$$

ILZ003-004-008-010-011-017-018-221100-
NORTH CENTRAL ILLINOIS

CITY           SKY/WX    TMP DP  RH WIND       PRES   REMARKS
ROCKFORD       CLEAR     44  40  85 CALM      30.25R
FREEPORT*      CLEAR     40  38  95 CALM      30.25S FOG
$$

ILZ005-006-012>014-019>023-221100-
NORTHEAST ILLINOIS

CITY           SKY/WX    TMP DP  RH WIND       PRES   REMARKS
CHICAGO-OHARE  PTCLDY    47  41  80 NW8       30.20R
CHICAGO-MIDWAY PTCLDY    50  44  80 NW9       30.20R
AURORA         CLEAR     40  36  86 N3        30.22R
LANSING*       PTCLDY    52  43  71 N5        30.19R
WAUKEGAN       CLEAR     43  39  86 NW5       30.20R
DUPAGE AIRPORT CLEAR     43  39  86 NW5       30.21R
WHEELING       CLEAR     45  40  82 NW5       30.21R
NORTHERLY ISL    N/A     54  45  71 NW8         N/A
$$

LMZ740>746-221100-
SOUTHERN LAKE MICHIGAN

STATION/POSITION SKY/WX   TEMP    WIND        PRES    VSBY  WAVE
                          AIR SEA DIR/SP/G                  HT/PER
                          (F)     (DEG/KT/KT) (MB)    (MI)  (FT/S)
SOUTHERN BUOY              53 61  350/ 14/ 17 1021.6R         7/ 8
WAUKEGAN HARBOR            47     330/  8/ 11   N/A
HARRISON CRIB              55      20/ 15/ 19   N/A
BURNHAM HARBOR             54     290/  8/ 14   N/A
CALUMET HARBOR             54     360/  6/ 13 1020.7R
MICHIGAN CITY              54     350/ 20/ 24   N/A
MICHIGAN CITY 6N           55 64   10/ 12/ 19   N/A           7/ 7
ST. JOSEPH                 51 65   60/ 10/ 16   N/A           7/ 7
$$

ILZ025>027-034>036-040-047-049-050-058-095>099-221100-
WEST-CENTRAL ILLINOIS

CITY           SKY/WX    TMP DP  RH WIND       PRES   REMARKS
QUINCY         CLEAR     48  46  93 N3        30.24R
GALESBURG*     CLEAR     41  41  99 CALM      30.24R
$$

ILZ028>032-037-038-041>044-048-051>054-059>061-221100-
CENTRAL ILLINOIS

CITY           SKY/WX    TMP DP  RH WIND       PRES   REMARKS
DECATUR        CLEAR     50  47  89 CALM      30.21R
PEORIA         CLEAR     49  45  86 CALM      30.23R
SPRINGFIELD    CLEAR     51  49  92 N8        30.22R
TAYLORVILLE    NOT AVBL
$$

ILZ033-039-045-046-055>057-062-063-221100-
EAST-CENTRAL ILLINOIS

CITY           SKY/WX    TMP DP  RH WIND       PRES   REMARKS
CHAMPAIGN      CLEAR     45  44  97 NW6       30.20R
MATTOON        CLEAR     47  45  93 NW5       30.19R
$$

ILZ079-100>102-221100-
SOUTHWEST ILLINOIS

CITY           SKY/WX    TMP DP  RH WIND       PRES   REMARKS
BELLEVILLE     CLEAR     54  51  90 N5        30.20R
CAHOKIA*       CLEAR     53  49  86 N3        30.21R
$$

ILZ064>066-069>071-074>076-080>082-084>086-088>090-092>094-221100-
SOUTH-CENTRAL ILLINOIS

CITY           SKY/WX    TMP DP  RH WIND       PRES   REMARKS
CARBONDALE     CLEAR     51  49  92 NW3       30.19R
MT. VERNON     CLEAR     52  46  82 CALM      30.19S
$$

ILZ067-068-072-073-078-083-087-091-221100-
SOUTHEAST ILLINOIS

CITY           SKY/WX    TMP DP  RH WIND       PRES   REMARKS
LAWRENCEVILLE  CLEAR     52  50  93 N7        30.18R
$$

ABBREVIATIONS USED IN REMARKS
   TC - TEMPERATURE IN CELSIUS
  WCI - WIND CHILL INDEX
   HX - HEAT INDEX
  VSB - VISIBILITY
$$




USA.gov is the U.S. government's official web portal to all federal, state and local government web resources and services.